SCP
0 0 0 0 0 0 0 0 0 0 0 0 0 0 0 0 0 0 0 0 0 0 0 0 0 0 0 0 0 0 0 0 0 0 0 0 0 0 0 0 0 0 0
0 0 0 0 0 0 0 0 0 0 0 0 0 0 0 0 0 0 0 0 0 0 0 0 0 0 0 0 0 0 0 0 0 0 0 -0 0 0 0 0 0 0 0
0 0 0 0 0 0 0 0 0 0 0 0 0 0 0 0 0 0 0 0 0 0 0 0 0 0 0 0 0 0 0 0 0 0 0 0 0 0 0 0 0 0 0
0 0 0 0 0 0 0 0 0 0 0 0 0 0 0 0 0 0 0 0 0 0 0 0 0 0 0 0 0 0 0 0 0 0 0 0 0 0 0 0 0 0 0
0 0 0 0 0 0 0 0 0 0 0 0 0 0 0 0 0 0 0 0 0 0 0 0 0 0 0 0 0 0 0 0 0 0 0 0 0 0 0 0 0 0 0
0 0 0 0 0 0 0 0 0 0 0 0 0 0 0 0 0 0 0 0 0 0 0 0 0 0 0 0 0 0 0 0 0 0 0 0 0 0 0 0 0 0 0
0 0 0 0 0 0 0 0 0 0 0 0 0 0 0 0 0 0 0 0 0 0 0 0 0 0 0 0 0 0 0 0 0 0 0 0 0 0 0 0 0 0 0
0 0 0 0 0 0 0 0 0 0 0 0 0 0 0 0 0 0 0 0 0 0 0 0 0 0 0 0 0 0 0 0 0 0 0 0 0 0 0 0 0 0 0
0 0 0 -0 0 0 0 0 0 0 0 0 0 0 0 0 0 0 0 0 0 0 0 0 0 0 0 0 0 0 0 0 0 0 0 0 0 0 0 0 0 0 0
0 -0 -0 0 0 0 0 0 0 0 0 0 0 0 0 0 0 0 0 0 0 0 0 0 0 0 0 0 0 0 0 0 0 0 0 0 0 0 0 0 0 0 0
-0 -0 0 0 0 0 0 0 0 0 0 0 0 0 0 0 0 0 0 0 0 0 0 0 0 0 0 0 0 0 0 0 0 0 0 0 0 0 0 0 0 -0 0
0 -0 0 0 0 0 0 0 -0 -0 0 0 0 0 0 0 0 0 0 0 0 0 0 0 0 0 0 0 0 0 0 0 0 0 0 0 0 0 0 -0 -0 0 0
0 0 0 0 0 0 0 0 0 0 0 0 0 0 0 0 0 0 0 0 0 0 0 0 0 0 0 0 0 0 0 0 0 0 0 -0 -0 -0 -0 -0 0 0 0
0 0 0 0 0 0 0 0 0 0 0 0 0 0 0 0 0 0 0 0 0 0 0 0 0 0 0 0 0 0 0 0 0 0 0 -0 -0 0 -0 -0 0 -0 0
0 0 0 0 0 0 0 0 0 0 0 0 0 0 0 0 0 0 0 0 0 0 0 0 0 0 0 0 0 0 0 0 0 0 -0 -0 -0 -0 -0 -0 0 0 -0
0 0 0 0 0 0 0 0 0 0 0 0 0 0 0 0 0 0 0 0 0 0 0 0 0 0 0 0 0 0 0 0 0 -0 -0 -0 -0 0 -0 -0 0 0 0
0 0 0 0 0 0 -0 0 0 0 0 0 0 0 0 0 0 0 0 0 0 0 0 0 0 0 0 0 0 0 0 0 0 0 0 -0 -0 -0 0 -0 0 0 0
0 0 0 0 0 0 0 0 0 0 0 0 0 0 0 0 0 0 0 0 0 0 0 0 0 0 0 0 0 0 0 0 0 0 0 0 0 0 -0 -0 0 0 0
0 0 0 0 0 0 0 0 0 0 0 0 0 0 0 0 0 0 0 0 0 0 0 0 0 0 0 0 0 0 0 0 0 0 0 0 0 -0 -0 0 0 0 0
0 0 0 -0 0 0 -0 0 0 0 0 0 0 0 0 0 0 0 0 0 0 0 0 0 0 0 0 0 0 0 0 0 0 0 0 0 0 0 -0 0 0 0 0
0 -0 -0 -0 -0 -0 0 0 0 0 0 0 0 0 0 0 0 0 0 0 0 0 0 0 0 0 0 0 0 0 0 0 0 0 0 0 0 0 0 0 0 0 -0
0 0 0 0 0 0 0 0 0 0 0 0 0 0 0 0 0 0 0 0 0 0 0 0 0 0 0 0 0 0 0 0 0 0 0 0 0 0 0 0 -0 0 0
0 0 0 0 0 0 0 0 0 0 0 0 0 0 0 0 0 0 0 0 0 0 0 0 0 0 0 0 0 0 0 0 0 0 0 0 0 0 0 0 0 0 0
0 0 0 0 0 0 0 0 0 0 0 0 0 0 0 0 0 0 0 0 0 0 0 0 0 0 0 0 0 0 0 0 0 0 0 0 0 0 0 0 0 0 0
0 0 0 0 0 0 0 0 0 0 0 0 0 0 0 0 0 0 0 0 0 0 0 0 0 0 0 0 0 0 0 0 0 0 0 0 0 0 0 0 0 0 0
0 0 0 0 0 0 0 0 0 0 0 0 0 0 0 0 0 0 0 0 0 0 0 0 0 0 0 0 0 0 0 0 0 0 0 0 0 0 0 0 0 0 0
Wind_Speed_500mb
29 35 32 29 34 34 32 31 30 34 35 36 39 41 41 45 48 46 42 38 35 33 34 32 31 35 40 40 37 35 41 45 49 55 60 61 64 68 67 66 72 76 75
9 10 15 22 26 26 27 28 28 33 34 35 38 41 45 46 40 31 27 29 32 36 38 38 40 44 44 42 41 34 38 41 36 39 49 41 56 48 43 49 51 55 65
9 5 6 8 14 18 20 27 30 32 34 37 40 42 42 36 29 24 30 34 37 37 38 38 40 43 41 38 34 31 35 44 39 31 29 23 18 47 20 37 47 50 55
9 1 4 8 14 21 29 29 31 32 35 39 39 35 32 31 27 32 33 32 32 32 35 39 41 43 43 45 44 42 43 42 48 46 42 52 61 45 46 50 46 54 54
6 10 14 21 25 28 29 29 32 34 35 35 31 29 27 28 28 30 30 29 29 32 33 34 37 39 41 44 48 48 47 45 45 45 50 55 58 66 63 61 55 65 73
17 18 24 24 23 26 26 27 29 30 30 29 26 26 26 28 28 28 29 29 30 27 29 32 33 33 36 39 43 43 45 50 50 52 47 51 54 50 55 56 59 56 62
17 20 19 21 23 26 24 27 27 26 26 26 24 24 27 27 28 28 26 28 25 26 28 31 33 33 34 37 41 45 47 49 53 53 54 57 60 63 67 75 83 70 65
22 24 24 24 23 25 24 26 25 22 25 24 22 24 28 29 28 26 27 28 28 29 29 32 33 33 33 37 40 45 50 54 55 56 58 63 63 60 62 65 68 71 70
26 28 26 24 20 21 21 22 21 23 23 22 26 28 30 29 27 26 27 27 27 30 30 32 34 31 31 35 42 48 49 53 58 62 63 65 64 65 64 62 60 59 44
31 27 27 24 22 19 19 20 22 22 20 22 25 27 28 25 23 24 24 25 26 29 32 31 33 36 38 44 48 50 51 56 59 61 62 63 66 65 60 63 62 58 60
35 29 27 26 22 19 19 20 20 17 17 21 23 23 21 22 22 23 24 25 27 30 31 32 34 36 41 46 51 55 54 55 55 54 56 55 54 53 55 61 57 60 55
29 27 26 24 20 18 18 16 13 13 18 21 19 17 19 23 24 25 27 26 26 29 32 34 38 39 41 43 48 49 45 48 49 47 44 42 41 46 46 52 53 55 45
33 25 26 24 21 18 15 14 15 16 19 21 18 18 19 20 24 25 24 25 24 27 29 31 34 34 36 40 41 42 40 39 40 40 37 34 37 41 38 38 33 43 34
42 37 31 29 25 20 16 15 17 18 20 21 18 16 17 19 21 20 19 20 20 23 25 25 28 31 32 36 39 38 34 33 33 32 33 31 30 30 33 33 31 32 30
47 46 42 33 29 24 20 18 18 19 20 21 17 16 16 18 19 17 16 17 18 20 21 22 24 25 27 30 34 34 31 29 25 24 25 27 28 34 36 32 28 32 34
50 48 45 37 30 26 23 22 20 19 20 20 17 16 15 13 14 14 14 13 13 16 18 19 21 22 23 27 30 33 35 31 26 23 22 22 26 30 33 34 33 27 31
55 51 48 43 36 29 26 22 24 22 21 19 16 14 13 11 10 10 10 11 12 14 16 16 18 20 23 24 25 26 25 27 27 24 17 15 19 21 18 18 23 34 38
57 51 47 44 38 33 29 28 28 27 27 24 21 19 17 15 15 16 17 18 17 18 20 20 21 21 22 21 21 22 23 24 24 23 22 23 22 26 28 21 19 15 11
49 44 44 43 39 37 32 33 34 36 36 32 29 27 27 26 26 23 24 23 22 24 25 25 25 25 23 23 22 20 19 19 20 20 20 20 18 17 20 21 23 20 18
44 46 44 41 38 34 34 36 39 42 44 41 39 40 41 40 38 36 35 32 31 28 28 28 29 27 24 23 23 22 20 18 18 17 16 16 17 19 18 17 14 12 13
47 42 44 44 40 40 41 39 38 43 45 47 49 51 50 49 46 44 42 40 38 37 34 34 30 30 28 23 24 24 23 21 18 18 19 18 16 13 12 15 18 18 18
47 47 48 46 41 37 39 44 43 39 44 47 52 53 55 57 54 52 50 48 46 46 42 40 37 32 31 30 27 26 26 28 27 24 22 21 21 20 21 19 17 16 16
47 47 48 46 39 36 37 44 44 44 45 49 52 54 55 57 60 62 58 56 54 53 49 47 45 38 34 33 34 34 33 31 32 30 30 30 29 28 27 26 25 24 25
47 47 47 47 44 39 38 39 43 46 48 52 54 52 54 61 62 65 67 64 60 58 57 53 51 45 42 39 36 39 40 39 39 40 39 37 35 34 34 34 33 34 33
43 44 47 48 44 43 41 40 41 43 44 45 48 51 51 54 61 67 68 70 68 60 59 57 53 52 51 42 45 43 43 44 44 46 47 45 45 44 41 38 37 37 38
45 45 46 46 45 46 45 44 42 43 46 47 45 45 45 45 51 56 62 65 68 64 61 58 57 56 56 51 51 52 51 49 48 52 54 54 50 47 45 45 44 43 43
Wind_Direction_500mb
138 164 185 210 226 233 242 248 258 266 273 281 287 292 298 302 304 304 302 301 303 303 299 297 291 284 284 287 282 283 293 298 297 301 295 288 283 284 282 280 276 272 264
125 178 221 243 235 235 244 256 259 265 278 286 291 298 302 304 307 311 316 313 304 301 304 299 296 293 292 287 285 283 292 294 302 302 311 309 303 303 299 292 283 276 268
62 120 191 208 213 237 252 256 264 277 285 290 295 297 299 303 306 295 285 290 295 300 301 299 296 295 297 295 292 287 286 292 295 289 280 307 292 315 321 309 283 278 274
81 47 293 254 254 245 255 266 273 281 286 290 292 294 298 300 298 294 295 298 297 295 292 294 300 300 299 296 294 284 276 274 280 284 278 263 275 297 296 282 275 287 293
328 284 263 258 256 266 269 274 280 283 285 286 290 292 291 290 290 293 293 293 294 291 299 299 297 296 295 292 290 285 279 280 276 279 280 279 273 265 285 293 286 284 284
319 313 303 297 285 275 275 274 277 281 284 288 291 289 293 288 293 292 293 290 290 301 295 291 291 297 297 294 293 290 284 284 279 273 278 279 277 279 285 298 297 303 291
319 293 281 282 290 283 285 283 284 284 287 287 285 292 286 290 291 289 288 292 302 299 299 303 306 306 305 304 299 296 297 292 286 277 276 276 275 273 272 277 282 292 303
315 305 301 292 277 276 276 275 279 286 283 283 290 285 288 289 286 290 290 299 304 302 310 309 308 307 307 312 308 303 302 298 289 283 277 278 273 274 277 274 279 286 286
328 320 315 308 295 284 281 279 285 285 286 292 292 292 290 291 289 291 292 296 297 304 309 309 306 300 298 298 295 293 294 293 289 285 279 274 274 272 272 274 270 274 275
320 318 313 312 305 300 294 292 289 288 295 297 295 301 301 296 292 290 293 293 298 303 306 310 304 300 300 296 293 292 291 288 286 287 285 278 274 276 276 277 264 268 271
316 314 318 314 313 306 299 290 287 298 307 303 308 310 309 303 300 301 301 299 302 300 302 304 301 300 297 296 295 294 295 292 293 292 290 284 283 277 273 274 275 260 261
335 320 321 315 318 313 300 295 298 319 310 319 323 320 317 313 314 311 307 308 311 309 309 305 304 308 310 312 306 302 296 289 295 298 293 286 280 279 278 274 266 256 259
0 338 328 329 332 326 321 322 327 320 326 334 328 326 327 328 328 321 313 318 327 318 317 315 319 320 318 312 311 310 308 299 298 297 290 286 282 282 285 278 282 257 261
6 359 348 343 335 329 325 328 325 328 331 329 323 327 334 341 340 338 334 338 341 333 339 340 335 330 325 327 327 326 317 305 296 292 295 293 286 286 283 284 285 273 269
2 1 354 345 336 328 325 324 324 329 328 314 319 320 330 344 346 344 347 358 360 357 5 3 360 358 2 3 1 356 339 322 309 297 295 293 295 295 292 292 286 275 276
351 348 349 342 332 325 318 315 316 318 317 311 312 317 321 335 341 350 359 7 3 359 1 357 356 2 7 13 10 11 10 3 347 332 318 316 305 299 297 295 293 281 279
343 339 339 340 332 315 307 307 301 302 300 301 304 310 318 323 325 331 336 344 342 335 338 341 342 342 351 1 355 354 360 14 20 15 7 4 359 349 335 327 303 291 291
336 330 330 330 332 322 301 293 288 284 283 284 285 289 291 295 295 298 301 305 312 315 318 321 323 329 334 342 347 349 351 1 5 5 13 23 27 26 21 23 28 25 347
329 326 324 323 323 324 308 288 283 281 275 275 276 281 283 282 282 285 289 289 291 298 301 306 310 313 320 325 330 336 337 346 356 0 3 5 5 6 24 26 21 26 33
331 329 323 320 317 317 312 299 286 279 276 277 274 272 273 277 279 282 284 284 286 288 291 295 298 301 305 308 314 320 324 329 337 344 354 3 5 0 2 4 358 2 15
327 326 323 322 322 315 307 302 297 289 288 279 273 269 268 271 274 275 278 282 282 283 286 288 288 291 294 295 299 306 310 314 319 327 333 338 343 347 348 350 352 356 358
329 329 328 327 327 317 306 302 299 299 287 278 271 268 268 268 269 271 274 276 277 279 281 283 284 284 287 290 290 292 297 303 307 311 313 315 317 322 325 327 326 324 322
336 336 335 334 337 330 320 309 305 298 290 283 277 270 265 265 265 266 269 271 272 274 277 278 281 282 279 281 286 289 291 291 292 296 299 302 305 306 307 307 306 306 306
344 343 342 344 344 342 334 321 313 305 297 293 288 279 270 264 263 263 264 266 268 271 274 276 279 283 279 279 279 279 281 284 289 292 293 294 294 294 296 297 296 295 295
348 350 348 346 345 343 340 332 326 322 314 304 296 291 285 277 269 264 264 265 267 269 273 274 276 277 277 281 278 277 277 280 283 285 285 288 291 292 293 294 294 292 293
349 350 349 345 344 343 340 335 331 326 323 320 312 305 298 289 282 279 273 267 269 269 270 273 273 275 276 275 276 276 276 276 277 278 281 285 287 289 291 291 291 290 291
Wind_Speed_850mb
29 35 32 29 34 34 32 31 30 34 35 36 39 41 41 45 48 46 42 38 35 33 34 32 31 35 40 40 37 35 41 45 49 55 60 61 64 68 67 66 72 76 75
9 10 15 22 26 26 27 28 28 33 34 35 38 41 45 46 40 31 27 29 32 36 38 38 40 44 44 42 41 34 38 41 36 39 49 41 56 48 43 49 51 55 65
9 5 6 8 14 18 20 27 30 32 34 37 40 42 42 36 29 24 30 34 37 37 38 38 40 43 41 38 34 31 35 44 39 31 29 23 18 47 20 37 47 50 55
9 1 4 8 14 21 29 29 31 32 35 39 39 35 32 31 27 32 33 32 32 32 35 39 41 43 43 45 44 42 43 42 48 46 42 52 61 45 46 50 46 54 54
6 10 14 21 25 28 29 29 32 34 35 35 31 29 27 28 28 30 30 29 29 32 33 34 37 39 41 44 48 48 47 45 45 45 50 55 58 66 63 61 55 65 73
17 18 24 24 23 26 26 27 29 30 30 29 26 26 26 28 28 28 29 29 30 27 29 32 33 33 36 39 43 43 45 50 50 52 47 51 54 50 55 56 59 56 62
17 20 19 21 23 26 24 27 27 26 26 26 24 24 27 27 28 28 26 28 25 26 28 31 33 33 34 37 41 45 47 49 53 53 54 57 60 63 67 75 83 70 65
22 24 24 24 23 25 24 26 25 22 25 24 22 24 28 29 28 26 27 28 28 29 29 32 33 33 33 37 40 45 50 54 55 56 58 63 63 60 62 65 68 71 70
26 28 26 24 20 21 21 22 21 23 23 22 26 28 30 29 27 26 27 27 27 30 30 32 34 31 31 35 42 48 49 53 58 62 63 65 64 65 64 62 60 59 44
31 27 27 24 22 19 19 20 22 22 20 22 25 27 28 25 23 24 24 25 26 29 32 31 33 36 38 44 48 50 51 56 59 61 62 63 66 65 60 63 62 58 60
35 29 27 26 22 19 19 20 20 17 17 21 23 23 21 22 22 23 24 25 27 30 31 32 34 36 41 46 51 55 54 55 55 54 56 55 54 53 55 61 57 60 55
29 27 26 24 20 18 18 16 13 13 18 21 19 17 19 23 24 25 27 26 26 29 32 34 38 39 41 43 48 49 45 48 49 47 44 42 41 46 46 52 53 55 45
33 25 26 24 21 18 15 14 15 16 19 21 18 18 19 20 24 25 24 25 24 27 29 31 34 34 36 40 41 42 40 39 40 40 37 34 37 41 38 38 33 43 34
42 37 31 29 25 20 16 15 17 18 20 21 18 16 17 19 21 20 19 20 20 23 25 25 28 31 32 36 39 38 34 33 33 32 33 31 30 30 33 33 31 32 30
47 46 42 33 29 24 20 18 18 19 20 21 17 16 16 18 19 17 16 17 18 20 21 22 24 25 27 30 34 34 31 29 25 24 25 27 28 34 36 32 28 32 34
50 48 45 37 30 26 23 22 20 19 20 20 17 16 15 13 14 14 14 13 13 16 18 19 21 22 23 27 30 33 35 31 26 23 22 22 26 30 33 34 33 27 31
55 51 48 43 36 29 26 22 24 22 21 19 16 14 13 11 10 10 10 11 12 14 16 16 18 20 23 24 25 26 25 27 27 24 17 15 19 21 18 18 23 34 38
57 51 47 44 38 33 29 28 28 27 27 24 21 19 17 15 15 16 17 18 17 18 20 20 21 21 22 21 21 22 23 24 24 23 22 23 22 26 28 21 19 15 11
49 44 44 43 39 37 32 33 34 36 36 32 29 27 27 26 26 23 24 23 22 24 25 25 25 25 23 23 22 20 19 19 20 20 20 20 18 17 20 21 23 20 18
44 46 44 41 38 34 34 36 39 42 44 41 39 40 41 40 38 36 35 32 31 28 28 28 29 27 24 23 23 22 20 18 18 17 16 16 17 19 18 17 14 12 13
47 42 44 44 40 40 41 39 38 43 45 47 49 51 50 49 46 44 42 40 38 37 34 34 30 30 28 23 24 24 23 21 18 18 19 18 16 13 12 15 18 18 18
47 47 48 46 41 37 39 44 43 39 44 47 52 53 55 57 54 52 50 48 46 46 42 40 37 32 31 30 27 26 26 28 27 24 22 21 21 20 21 19 17 16 16
47 47 48 46 39 36 37 44 44 44 45 49 52 54 55 57 60 62 58 56 54 53 49 47 45 38 34 33 34 34 33 31 32 30 30 30 29 28 27 26 25 24 25
47 47 47 47 44 39 38 39 43 46 48 52 54 52 54 61 62 65 67 64 60 58 57 53 51 45 42 39 36 39 40 39 39 40 39 37 35 34 34 34 33 34 33
43 44 47 48 44 43 41 40 41 43 44 45 48 51 51 54 61 67 68 70 68 60 59 57 53 52 51 42 45 43 43 44 44 46 47 45 45 44 41 38 37 37 38
45 45 46 46 45 46 45 44 42 43 46 47 45 45 45 45 51 56 62 65 68 64 61 58 57 56 56 51 51 52 51 49 48 52 54 54 50 47 45 45 44 43 43
Wind_Direction_850mb
138 164 185 210 226 233 242 248 258 266 273 281 287 292 298 302 304 304 302 301 303 303 299 297 291 284 284 287 282 283 293 298 297 301 295 288 283 284 282 280 276 272 264
125 178 221 243 235 235 244 256 259 265 278 286 291 298 302 304 307 311 316 313 304 301 304 299 296 293 292 287 285 283 292 294 302 302 311 309 303 303 299 292 283 276 268
62 120 191 208 213 237 252 256 264 277 285 290 295 297 299 303 306 295 285 290 295 300 301 299 296 295 297 295 292 287 286 292 295 289 280 307 292 315 321 309 283 278 274
81 47 293 254 254 245 255 266 273 281 286 290 292 294 298 300 298 294 295 298 297 295 292 294 300 300 299 296 294 284 276 274 280 284 278 263 275 297 296 282 275 287 293
328 284 263 258 256 266 269 274 280 283 285 286 290 292 291 290 290 293 293 293 294 291 299 299 297 296 295 292 290 285 279 280 276 279 280 279 273 265 285 293 286 284 284
319 313 303 297 285 275 275 274 277 281 284 288 291 289 293 288 293 292 293 290 290 301 295 291 291 297 297 294 293 290 284 284 279 273 278 279 277 279 285 298 297 303 291
319 293 281 282 290 283 285 283 284 284 287 287 285 292 286 290 291 289 288 292 302 299 299 303 306 306 305 304 299 296 297 292 286 277 276 276 275 273 272 277 282 292 303
315 305 301 292 277 276 276 275 279 286 283 283 290 285 288 289 286 290 290 299 304 302 310 309 308 307 307 312 308 303 302 298 289 283 277 278 273 274 277 274 279 286 286
328 320 315 308 295 284 281 279 285 285 286 292 292 292 290 291 289 291 292 296 297 304 309 309 306 300 298 298 295 293 294 293 289 285 279 274 274 272 272 274 270 274 275
320 318 313 312 305 300 294 292 289 288 295 297 295 301 301 296 292 290 293 293 298 303 306 310 304 300 300 296 293 292 291 288 286 287 285 278 274 276 276 277 264 268 271
316 314 318 314 313 306 299 290 287 298 307 303 308 310 309 303 300 301 301 299 302 300 302 304 301 300 297 296 295 294 295 292 293 292 290 284 283 277 273 274 275 260 261
335 320 321 315 318 313 300 295 298 319 310 319 323 320 317 313 314 311 307 308 311 309 309 305 304 308 310 312 306 302 296 289 295 298 293 286 280 279 278 274 266 256 259
0 338 328 329 332 326 321 322 327 320 326 334 328 326 327 328 328 321 313 318 327 318 317 315 319 320 318 312 311 310 308 299 298 297 290 286 282 282 285 278 282 257 261
6 359 348 343 335 329 325 328 325 328 331 329 323 327 334 341 340 338 334 338 341 333 339 340 335 330 325 327 327 326 317 305 296 292 295 293 286 286 283 284 285 273 269
2 1 354 345 336 328 325 324 324 329 328 314 319 320 330 344 346 344 347 358 360 357 5 3 360 358 2 3 1 356 339 322 309 297 295 293 295 295 292 292 286 275 276
351 348 349 342 332 325 318 315 316 318 317 311 312 317 321 335 341 350 359 7 3 359 1 357 356 2 7 13 10 11 10 3 347 332 318 316 305 299 297 295 293 281 279
343 339 339 340 332 315 307 307 301 302 300 301 304 310 318 323 325 331 336 344 342 335 338 341 342 342 351 1 355 354 360 14 20 15 7 4 359 349 335 327 303 291 291
336 330 330 330 332 322 301 293 288 284 283 284 285 289 291 295 295 298 301 305 312 315 318 321 323 329 334 342 347 349 351 1 5 5 13 23 27 26 21 23 28 25 347
329 326 324 323 323 324 308 288 283 281 275 275 276 281 283 282 282 285 289 289 291 298 301 306 310 313 320 325 330 336 337 346 356 0 3 5 5 6 24 26 21 26 33
331 329 323 320 317 317 312 299 286 279 276 277 274 272 273 277 279 282 284 284 286 288 291 295 298 301 305 308 314 320 324 329 337 344 354 3 5 0 2 4 358 2 15
327 326 323 322 322 315 307 302 297 289 288 279 273 269 268 271 274 275 278 282 282 283 286 288 288 291 294 295 299 306 310 314 319 327 333 338 343 347 348 350 352 356 358
329 329 328 327 327 317 306 302 299 299 287 278 271 268 268 268 269 271 274 276 277 279 281 283 284 284 287 290 290 292 297 303 307 311 313 315 317 322 325 327 326 324 322
336 336 335 334 337 330 320 309 305 298 290 283 277 270 265 265 265 266 269 271 272 274 277 278 281 282 279 281 286 289 291 291 292 296 299 302 305 306 307 307 306 306 306
344 343 342 344 344 342 334 321 313 305 297 293 288 279 270 264 263 263 264 266 268 271 274 276 279 283 279 279 279 279 281 284 289 292 293 294 294 294 296 297 296 295 295
348 350 348 346 345 343 340 332 326 322 314 304 296 291 285 277 269 264 264 265 267 269 273 274 276 277 277 281 278 277 277 280 283 285 285 288 291 292 293 294 294 292 293
349 350 349 345 344 343 340 335 331 326 323 320 312 305 298 289 282 279 273 267 269 269 270 273 273 275 276 275 276 276 276 276 277 278 281 285 287 289 291 291 291 290 291